Location: Focicchia
(42.2496°N, 9.2935°E)
Time: 02:48:46
(UTC+00:00)

BREEZE-M DEB (TANK) - Pass Details

Date: 07 June 2020
Orbit: 419 x 13246 km, 46.0° (Epoch: 06 July)

Event Time Altitude Azimuth Distance (km) Brightness Sun altitude
Exits shadow 02:35:10 13° 210° (SSW) 2,620 5.6 -11.1°
Maximum altitude 02:39:20 29° 154° (SSE) 1,142 4.3 -10.6°
Drops below altitude 10° 02:42:07 10° 90° (E) 1,614 5.9 -10.2°
Sets 02:43:54 0° 77° (ENE) 2,374 7.2 -10.0°
